Weather History for Lamoni, IA

Change the Weather History Date:

Friday, January 11, 2013

  Actual Average Record
Temperature  
Mean Temperature 46 °F 24 °F  
Max Temperature 52 °F 33 °F 53 °F (1980)
Min Temperature 39 °F 15 °F -14 °F (1977)
Degree Days  
Heating Degree Days 20 41  
Month to date heating degree days 451  
Since 1 July heating degree days 2880  
Cooling Degree Days 0 0  
Month to date cooling degree days 0  
Year to date cooling degree days 0  
Moisture  
Dew Point 43 °F    
Average Humidity 87    
Maximum Humidity 100    
Minimum Humidity 61    
Precipitation  
Precipitation 0.01 in 0.01 in 0.23 in (1963)
Month to date precipitation 0.22  
Sea Level Pressure  
Sea Level Pressure 29.62 in    
Wind  
Wind Speed 11 mph (South)    
Max Wind Speed 20 mph    
Max Gust Speed 30 mph    
Visibility 6 miles    
Events Fog    
T = Trace of Precipitation, MM = Missing Value Source: NWS Daily Summary

Daily Weather History Graph

Daily Weather History Graph

Search for Another Location

Airport:

Trip Planner

Search our weather history database for the weather conditions in past years. The results will help you decide how hot, cold, wet, or windy it might be!

Date:

Astronomy

Jan. 11, 2013 Rise Set
Actual Time 7:38 AM CST 5:09 PM CST
Civil Twilight 7:08 AM CST 5:39 PM CST
Nautical Twilight 6:34 AM CST 6:13 PM CST
Astronomical Twilight 6:01 AM CST 6:46 PM CST
Moon 7:11 AM CST (1/11) 5:28 PM CST (1/11)
Length of Visible Light 10h 31m
Length of Day
9h 30m
Waning Crescent, 0% of the Moon is Illuminated
Jan 11
Waning Crescent
Jan 11
New
Jan 18
First Quarter
Jan 26
Full
Feb 3
Last Quarter

Hourly Weather History & Observations

Time (CST) Temp. Windchill Dew Point Humidity Pressure Visibility Wind Dir Wind Speed Gust Speed Precip Events Conditions
12:53 AM 41.0 °F 37.1 °F 39.9 °F 96% 29.73 in 0.5 mi SE 5.8 mph - N/A Fog Fog
1:53 AM 41.0 °F 35.8 °F 39.9 °F 96% 29.75 in 0.2 mi SSW 8.1 mph - N/A Fog Fog
2:53 AM 41.0 °F 35.8 °F 39.9 °F 96% 29.73 in 0.5 mi South 8.1 mph - N/A Fog Fog
3:53 AM 39.9 °F 36.7 °F 39.9 °F 100% 29.72 in 0.2 mi South 4.6 mph - N/A Fog Fog
4:53 AM 41.0 °F 37.1 °F 39.9 °F 96% 29.70 in 0.2 mi South 5.8 mph - N/A Fog Fog
5:53 AM 41.0 °F 37.1 °F 41.0 °F 100% 29.69 in 0.2 mi SSE 5.8 mph - N/A Fog Fog
6:53 AM 43.0 °F 38.2 °F 42.1 °F 97% 29.67 in 0.2 mi South 8.1 mph - 0.01 in Fog Fog
7:53 AM 46.0 °F 39.9 °F 45.0 °F 96% 29.68 in 1.2 mi South 13.8 mph - N/A   Overcast
8:02 AM 46.4 °F 40.7 °F 44.6 °F 93% 29.66 in 2.5 mi South 12.7 mph 20.7 mph N/A   Overcast
8:11 AM 46.4 °F 40.7 °F 44.6 °F 93% 29.65 in 3.0 mi South 12.7 mph 19.6 mph N/A   Overcast
8:53 AM 46.9 °F - 46.0 °F 97% 29.65 in 3.0 mi South 13.8 mph 21.9 mph N/A   Overcast
9:45 AM 46.4 °F 39.5 °F 46.4 °F 100% 29.63 in 5.0 mi South 17.3 mph 28.8 mph N/A   Overcast
9:53 AM 46.9 °F - 46.0 °F 97% 29.63 in 5.0 mi South 18.4 mph 29.9 mph N/A   Overcast
10:27 AM 48.2 °F - 46.4 °F 93% 29.61 in 8.0 mi South 19.6 mph 26.5 mph N/A   Overcast
10:53 AM 48.9 °F - 45.0 °F 86% 29.62 in 9.0 mi South 17.3 mph 27.6 mph N/A   Overcast
11:53 AM 48.9 °F - 45.0 °F 86% 29.57 in 10.0 mi South 13.8 mph - N/A   Mostly Cloudy
12:27 PM 48.2 °F - 44.6 °F 87% 29.53 in 10.0 mi South 13.8 mph - N/A   Partly Cloudy
12:53 PM 48.9 °F - 45.0 °F 86% 29.55 in 10.0 mi South 15.0 mph 24.2 mph N/A   Clear
2:53 PM 51.1 °F - 45.0 °F 80% 29.54 in 10.0 mi South 17.3 mph 27.6 mph N/A   Clear
3:53 PM 51.1 °F - 44.1 °F 77% 29.53 in 10.0 mi South 16.1 mph 21.9 mph N/A   Clear
4:53 PM 51.1 °F - 44.1 °F 77% 29.52 in 10.0 mi South 17.3 mph 24.2 mph N/A   Clear
5:53 PM 51.1 °F - 44.1 °F 77% 29.55 in 10.0 mi South 17.3 mph 26.5 mph N/A   Clear
6:53 PM 52.0 °F - 44.1 °F 74% 29.55 in 10.0 mi South 17.3 mph 26.5 mph N/A   Clear
7:53 PM 52.0 °F - 44.1 °F 74% 29.55 in 10.0 mi South 16.1 mph 21.9 mph N/A   Clear
8:53 PM 51.1 °F - 43.0 °F 74% 29.56 in 10.0 mi South 15.0 mph - N/A   Clear
9:53 PM 52.0 °F - 43.0 °F 71% 29.57 in 10.0 mi South 16.1 mph 24.2 mph N/A   Clear
10:53 PM 51.1 °F - 43.0 °F 74% 29.59 in 10.0 mi SSW 18.4 mph 26.5 mph N/A   Clear
11:53 PM 52.0 °F - 39.0 °F 61% 29.62 in 10.0 mi SW 19.6 mph 29.9 mph N/A   Mostly Cloudy